Total_Precipitation_Accumulation
0.00 0.00 0.00 0.01 0.03 0.03 0.06 0.06 0.01 0.00 0.00 0.00 0.00 0.00 0.00 0.00 0.00 0.00 0.00 0.00 0.00 0.00 0.01 0.02 0.02 0.01 0.00 0.01 0.03 0.04 0.03 0.02 0.03 0.06 0.09 0.11 0.13 0.10 0.06 0.04 0.02 0.01 0.01 0.01 0.01 0.01 0.02 0.02 0.02
0.00 0.00 0.00 0.00 0.01 0.02 0.06 0.06 0.02 0.02 0.01 0.00 0.00 0.00 0.00 0.00 0.00 0.00 0.00 0.00 0.00 0.00 0.00 0.01 0.01 0.01 0.00 0.01 0.02 0.04 0.04 0.03 0.04 0.09 0.10 0.09 0.10 0.09 0.08 0.07 0.04 0.04 0.02 0.01 0.01 0.01 0.01 0.01 0.00
0.00 0.00 0.00 0.00 0.00 0.02 0.05 0.07 0.03 0.02 0.02 0.01 0.00 0.00 0.00 0.00 0.00 0.00 0.00 0.00 0.00 0.00 0.00 0.00 0.01 0.01 0.01 0.01 0.02 0.04 0.06 0.05 0.06 0.09 0.10 0.07 0.08 0.09 0.08 0.10 0.10 0.07 0.04 0.02 0.01 0.01 0.01 0.01 0.01
0.00 0.00 0.00 0.00 0.00 0.01 0.03 0.02 0.01 0.01 0.00 0.01 0.00 0.00 0.00 0.00 0.00 0.00 0.00 0.00 0.00 0.00 0.00 0.00 0.01 0.01 0.00 0.01 0.01 0.03 0.05 0.06 0.07 0.09 0.09 0.09 0.11 0.10 0.07 0.09 0.10 0.07 0.04 0.02 0.04 0.04 0.03 0.02 0.01
0.00 0.00 0.00 0.00 0.00 0.01 0.02 0.01 0.01 0.01 0.01 0.00 0.00 0.00 0.00 0.00 0.00 0.00 0.00 0.00 0.00 0.00 0.00 0.01 0.01 0.01 0.00 0.00 0.01 0.01 0.02 0.03 0.04 0.08 0.10 0.09 0.09 0.10 0.08 0.06 0.05 0.04 0.02 0.02 0.07 0.10 0.09 0.06 0.04
0.00 0.00 0.00 0.00 0.01 0.01 0.02 0.02 0.02 0.04 0.01 0.01 0.01 0.00 0.00 0.00 0.00 0.00 0.00 0.00 0.00 0.00 0.01 0.01 0.01 0.01 0.01 0.00 0.00 0.01 0.01 0.02 0.02 0.04 0.06 0.04 0.02 0.02 0.02 0.03 0.03 0.02 0.02 0.05 0.07 0.08 0.11 0.14 0.11
0.00 0.00 0.00 0.00 0.00 0.00 0.02 0.03 0.03 0.03 0.01 0.00 0.00 0.00 0.00 0.00 0.00 0.00 0.00 0.00 0.00 0.00 0.00 0.01 0.01 0.01 0.01 0.01 0.01 0.01 0.01 0.01 0.01 0.01 0.01 0.01 0.00 0.01 0.01 0.01 0.01 0.01 0.01 0.03 0.05 0.04 0.05 0.09 0.10
0.00 0.00 0.00 0.00 0.00 0.00 0.01 0.03 0.03 0.02 0.00 0.00 0.00 0.00 0.00 0.00 0.00 0.00 0.00 0.00 0.00 0.00 0.00 0.00 0.00 0.01 0.01 0.01 0.01 0.01 0.01 0.01 0.01 0.00 0.00 0.00 0.00 0.00 0.00 0.01 0.03 0.02 0.02 0.02 0.03 0.02 0.04 0.07 0.08
0.00 0.00 0.00 0.00 0.00 0.00 0.01 0.03 0.03 0.02 0.02 0.01 0.00 0.00 0.00 0.00 0.00 0.00 0.01 0.01 0.01 0.01 0.01 0.00 0.00 0.01 0.01 0.01 0.00 0.00 0.00 0.01 0.01 0.01 0.00 0.00 0.00 0.01 0.02 0.03 0.07 0.07 0.07 0.06 0.07 0.07 0.06 0.06 0.07
0.00 0.00 0.00 0.00 0.00 0.00 0.01 0.03 0.03 0.02 0.02 0.01 0.00 0.00 0.00 0.00 0.00 0.00 0.00 0.00 0.01 0.01 0.01 0.00 0.00 0.00 0.00 0.00 0.00 0.00 0.00 0.00 0.00 0.02 0.02 0.01 0.02 0.02 0.02 0.02 0.09 0.20 0.25 0.24 0.25 0.24 0.17 0.15 0.15
0.00 0.00 0.00 0.00 0.00 0.00 0.00 0.01 0.02 0.02 0.01 0.00 0.00 0.00 0.00 0.00 0.00 0.00 0.00 0.00 0.00 0.00 0.00 0.00 0.00 0.00 0.00 0.00 0.00 0.00 0.00 0.01 0.00 0.01 0.01 0.01 0.01 0.01 0.01 0.04 0.08 0.14 0.19 0.30 0.42 0.39 0.29 0.30 0.29
0.00 0.00 0.00 0.00 0.00 0.00 0.00 0.00 0.01 0.02 0.01 0.01 0.01 0.00 0.00 0.00 0.00 0.00 0.00 0.00 0.00 0.00 0.00 0.00 0.00 0.00 0.00 0.00 0.00 0.00 0.00 0.00 0.00 0.00 0.00 0.00 0.01 0.02 0.06 0.12 0.14 0.18 0.17 0.26 0.29 0.30 0.17 0.11 0.08
0.00 0.00 0.00 0.00 0.00 0.00 0.00 0.00 0.00 0.01 0.02 0.01 0.01 0.01 0.01 0.00 0.00 0.00 0.00 0.00 0.00 0.00 0.00 0.00 0.00 0.00 0.01 0.00 0.00 0.00 0.00 0.00 0.00 0.00 0.00 0.00 0.01 0.04 0.11 0.14 0.17 0.11 0.13 0.17 0.19 0.14 0.13 0.11 0.08
0.00 0.00 0.00 0.00 0.00 0.00 0.00 0.00 0.00 0.00 0.01 0.01 0.01 0.02 0.01 0.01 0.00 0.00 0.00 0.00 0.00 0.00 0.00 0.00 0.00 0.00 0.01 0.01 0.00 0.00 0.00 0.00 0.00 0.00 0.00 0.00 0.01 0.08 0.13 0.16 0.19 0.15 0.15 0.20 0.24 0.18 0.24 0.17 0.11
0.00 0.00 0.00 0.00 0.00 0.00 0.00 0.00 0.00 0.00 0.00 0.01 0.01 0.01 0.02 0.01 0.01 0.01 0.00 0.00 0.00 0.00 0.00 0.00 0.00 0.00 0.01 0.01 0.01 0.01 0.00 0.00 0.00 0.00 0.01 0.02 0.05 0.15 0.18 0.19 0.20 0.23 0.21 0.28 0.30 0.28 0.26 0.17 0.12
0.00 0.00 0.00 0.00 0.00 0.00 0.00 0.00 0.00 0.00 0.00 0.00 0.01 0.01 0.01 0.02 0.02 0.01 0.01 0.01 0.01 0.01 0.01 0.01 0.01 0.01 0.03 0.04 0.05 0.04 0.03 0.03 0.02 0.02 0.03 0.07 0.13 0.23 0.31 0.25 0.25 0.34 0.32 0.36 0.43 0.40 0.31 0.28 0.18
0.00 0.00 0.00 0.00 0.00 0.00 0.00 0.00 0.00 0.00 0.00 0.00 0.01 0.03 0.05 0.06 0.06 0.06 0.06 0.07 0.07 0.05 0.04 0.04 0.04 0.04 0.09 0.14 0.18 0.18 0.18 0.13 0.09 0.09 0.12 0.20 0.29 0.38 0.51 0.41 0.40 0.38 0.40 0.42 0.29 0.41 0.46 0.41 0.32
0.00 0.00 0.00 0.00 0.00 0.00 0.00 0.00 0.00 0.00 0.01 0.01 0.03 0.06 0.10 0.15 0.24 0.24 0.19 0.20 0.18 0.16 0.17 0.15 0.14 0.17 0.31 0.47 0.47 0.42 0.38 0.30 0.27 0.25 0.30 0.40 0.53 0.58 0.68 0.56 0.51 0.44 0.52 0.57 0.50 0.54 0.49 0.38 0.31
0.00 0.00 0.00 0.00 0.00 0.00 0.00 0.00 0.00 0.01 0.02 0.03 0.05 0.14 0.23 0.28 0.41 0.51 0.51 0.42 0.35 0.33 0.35 0.40 0.52 0.61 0.80 0.81 0.71 0.71 0.73 0.71 0.67 0.60 0.56 0.58 0.59 0.62 0.72 0.61 0.68 0.61 0.57 0.63 0.58 0.59 0.55 0.45 0.41
0.00 0.00 0.00 0.00 0.00 0.00 0.00 0.00 0.01 0.02 0.04 0.06 0.07 0.09 0.20 0.37 0.52 0.66 0.68 0.61 0.61 0.78 0.92 1.02 1.09 1.33 1.39 1.27 1.26 1.31 1.33 1.25 1.23 1.10 0.94 0.78 0.69 0.70 0.70 0.80 0.70 0.65 0.65 0.69 0.73 0.67 0.49 0.39 0.42
0.00 0.00 0.00 0.00 0.00 0.00 0.00 0.00 0.01 0.06 0.10 0.14 0.17 0.19 0.23 0.28 0.34 0.43 0.48 0.52 0.60 0.77 0.91 1.13 1.41 1.68 1.77 1.79 1.84 1.80 1.77 1.63 1.51 1.32 1.17 0.99 0.85 0.78 0.79 0.85 0.81 0.71 0.67 0.69 0.81 0.69 0.56 0.48 0.50
0.00 0.00 0.00 0.00 0.00 0.00 0.00 0.00 0.00 0.03 0.06 0.11 0.17 0.22 0.27 0.34 0.37 0.41 0.44 0.47 0.54 0.60 0.80 1.12 1.41 1.65 1.81 1.92 1.92 1.95 1.94 1.86 1.76 1.52 1.26 1.09 0.95 0.93 0.94 0.89 0.83 0.80 0.76 0.71 0.63 0.52 0.65 0.61 0.55
0.00 0.00 0.00 0.00 0.00 0.00 0.00 0.00 0.00 0.00 0.02 0.05 0.11 0.18 0.28 0.37 0.43 0.50 0.58 0.67 0.73 0.83 1.00 1.18 1.35 1.55 1.69 1.73 1.75 1.79 1.73 1.68 1.60 1.38 1.18 1.05 0.99 0.95 0.90 0.84 0.93 0.98 0.86 0.74 0.65 0.59 0.64 0.60 0.57
0.00 0.00 0.00 0.00 0.00 0.00 0.00 0.00 0.00 0.00 0.01 0.04 0.13 0.20 0.31 0.42 0.53 0.65 0.71 0.78 0.85 0.98 1.15 1.29 1.39 1.55 1.64 1.53 1.40 1.39 1.40 1.39 1.29 1.16 1.04 0.92 0.84 0.82 0.80 0.84 0.92 0.93 0.83 0.75 0.63 0.57 0.62 0.60 0.58
0.00 0.02 0.05 0.03 0.01 0.00 0.00 0.00 0.02 0.03 0.02 0.08 0.17 0.23 0.29 0.37 0.45 0.54 0.68 0.88 0.96 0.97 1.00 1.18 1.43 1.66 1.65 1.46 1.26 1.19 1.17 1.19 1.17 1.09 1.01 0.91 0.82 0.78 0.77 0.75 0.71 0.70 0.66 0.65 0.62 0.57 0.60 0.61 0.58
0.04 0.06 0.16 0.13 0.04 0.02 0.01 0.02 0.08 0.08 0.13 0.16 0.21 0.25 0.26 0.24 0.22 0.22 0.25 0.34 0.39 0.41 0.41 0.49 0.61 0.78 0.84 0.80 0.76 0.75 0.78 0.86 0.91 0.92 0.91 0.88 0.82 0.74 0.66 0.57 0.51 0.50 0.48 0.47 0.53 0.58 0.59 0.59 0.58
0.14 0.15 0.12 0.24 0.21 0.17 0.04 0.03 0.10 0.12 0.19 0.24 0.26 0.23 0.20 0.18 0.15 0.16 0.18 0.20 0.23 0.26 0.32 0.41 0.49 0.53 0.53 0.49 0.45 0.45 0.47 0.55 0.62 0.67 0.71 0.72 0.70 0.64 0.57 0.54 0.51 0.43 0.38 0.36 0.41 0.48 0.49 0.50 0.50
0.08 0.14 0.28 0.44 0.42 0.29 0.12 0.10 0.23 0.33 0.33 0.37 0.38 0.34 0.27 0.21 0.20 0.21 0.23 0.26 0.33 0.43 0.52 0.58 0.57 0.52 0.45 0.42 0.40 0.37 0.37 0.37 0.39 0.41 0.42 0.43 0.42 0.42 0.40 0.35 0.30 0.24 0.21 0.21 0.23 0.26 0.29 0.32 0.34
0.10 0.15 0.30 0.42 0.44 0.41 0.32 0.27 0.23 0.31 0.43 0.57 0.59 0.48 0.35 0.28 0.25 0.25 0.24 0.28 0.33 0.42 0.49 0.55 0.56 0.53 0.48 0.45 0.44 0.40 0.35 0.30 0.27 0.26 0.25 0.24 0.21 0.18 0.16 0.15 0.13 0.10 0.08 0.07 0.08 0.10 0.13 0.14 0.16
0.07 0.14 0.27 0.43 0.48 0.48 0.44 0.34 0.16 0.18 0.29 0.40 0.42 0.35 0.27 0.24 0.23 0.22 0.21 0.23 0.26 0.32 0.39 0.43 0.45 0.49 0.48 0.43 0.42 0.41 0.35 0.26 0.20 0.16 0.13 0.12 0.10 0.08 0.06 0.05 0.04 0.02 0.02 0.02 0.02 0.03 0.04 0.05 0.06